Flag for Canada Weather past 2 weeks in Quispamsis, New Brunswick, Canada

Now
32 °F

Overcast.


Feels Like: 32 °F
Forecast: 32 / 49 °F
Wind: No wind

Location: Saint John


UV Index: 0 (Low)

Visibility: 10 mi


Pressure: 30.17 "Hg

Humidity: 87%

Dew point: 28 °F

Location of QuispamsisLocation

Historic Weather in Quispamsis

°F

Quispamsis temperature yesterday

Maximum temperature yesterday: 48 °F (at 3:00 PM)
Minimum temperature yesterday: 23 °F (at 6:00 AM)
Average temperature yesterday: 36 °F

Past Weeks' High & Low Weather Summary

 TemperatureHumidityPressure
High59 °F (Apr 15, 4:00 PM)100% (Apr 5, 7:00 PM)30.85 "Hg (Apr 5, 7:00 PM)
Low21 °F (Apr 17, 5:00 AM)18% (Apr 18, 2:00 PM)29.28 "Hg (Apr 9, 1:45 AM)
Average39 °F72%30.04 "Hg
* Reported Apr 4 3:00 AM — Apr 19 3:00 AM, Quispamsis, Weather by CustomWeather, © 2014

Note: Actual official high and low records may vary slightly from our data, if they occured in-between our weather recording intervals... More about our weather records

Advertising

Historic Weather Conditions — Data for Previous 24 hours

 ConditionsComfort  
Time TempWeatherWind HumidityBarometerVisibility
3:00 AM
Apr 19
30 °FMostly cloudy.3 mph93%30.21 "Hg15 mi
2:00 AM30 °FPassing clouds.6 mph93%30.23 "Hg15 mi
1:00 AM28 °FPassing clouds.5 mph93%30.25 "Hg15 mi
12:00 AM32 °FPassing clouds.3 mph80%30.25 "Hg15 mi
11:00 PM
Apr 18
32 °FOvercast.5 mph69%30.28 "Hg15 mi
10:00 PM36 °FOvercast.3 mph60%30.31 "Hg15 mi
9:00 PM36 °FMostly cloudy.3 mph52%30.31 "Hg15 mi
8:00 PM39 °FOvercast.5 mph45%30.34 "Hg15 mi
7:00 PM45 °FHigh level clouds.7 mph37%30.36 "Hg15 mi
6:00 PM48 °FPartly sunny.2 mph29%30.38 "Hg15 mi
5:00 PM48 °FPartly sunny.6 mph27%30.40 "Hg15 mi
4:00 PM48 °FPartly sunny.5 mph18%30.43 "Hg15 mi
3:00 PM48 °FPartly sunny.8 mph18%30.49 "Hg15 mi
2:00 PM46 °FPartly sunny.6 mph18%30.53 "Hg15 mi
1:00 PM43 °FPartly sunny.6 mph26%30.55 "Hg15 mi
12:00 PM43 °FPartly sunny.9 mph24%30.56 "Hg15 mi
11:00 AM41 °FPassing clouds.10 mph24%30.61 "Hg15 mi
10:00 AM37 °FPassing clouds.9 mph33%30.64 "Hg15 mi
9:00 AM34 °FPassing clouds.9 mph51%30.68 "Hg15 mi
8:00 AM30 °FPassing clouds.7 mph64%30.70 "Hg15 mi
7:00 AM23 °FPassing clouds.No wind80%30.70 "Hg15 mi
6:00 AM23 °FPassing clouds.3 mph80%30.69 "Hg15 mi
5:00 AM25 °FPassing clouds.6 mph74%30.68 "Hg15 mi
4:00 AM28 °FPassing clouds.7 mph59%30.70 "Hg15 mi
Weather by CustomWeather, © 2014

See weather overview